Location: Breitenfeld
(46.8500°N, 15.6333°E)
Time: 01:51:34
(UTC+00:00)

Cosmos 2322 Rocket - Visible Passes

Search period start: 17 June 2021 00:00
Search period end: 27 June 2021 00:00
Orbit: 831 x 852 km, 71.0° (Epoch: 16 June)

Date Brightness Start Highest point End Pass type
(mag) Time Alt. Az. Time Alt. Az. Time Alt. Az.
17 Jun 2.2 19:47:21 10° SSW 19:53:01 72° ESE 19:58:44 10° NNE visible
17 Jun 4.5 21:33:06 10° W 21:37:39 24° NW 21:42:14 10° N visible
18 Jun 2.2 19:32:19 10° SSW 19:37:58 69° ESE 19:43:40 10° NNE visible
18 Jun 4.5 21:17:56 10° W 21:22:34 25° NW 21:27:13 10° N visible
19 Jun 4.5 21:02:46 10° WSW 21:07:28 26° NW 21:12:12 10° N visible
20 Jun 4.5 20:47:37 10° WSW 20:52:22 27° NW 20:57:11 10° N visible
21 Jun 5.6 02:10:50 10° N 02:13:22 13° NE 02:15:54 10° ENE visible
21 Jun 4.5 20:32:27 10° WSW 20:37:17 28° NW 20:42:09 10° N visible
22 Jun 5.6 01:55:54 10° N 01:58:15 12° NNE 02:00:36 10° ENE visible
22 Jun 4.5 20:17:17 10° WSW 20:22:12 29° NW 20:27:08 10° N visible
23 Jun 5.7 01:40:58 10° N 01:43:08 12° NNE 01:45:17 10° NE visible
23 Jun 4.4 20:02:09 10° WSW 20:07:07 30° NW 20:12:07 10° N visible
24 Jun 5.8 01:26:04 10° NNE 01:28:01 12° NNE 01:29:57 10° NE visible
24 Jun 4.4 19:47:00 10° WSW 19:52:02 31° NW 19:57:05 10° NNE visible
25 Jun 5.9 01:11:11 10° NNE 01:12:53 11° NNE 01:14:35 10° NE visible
25 Jun 4.4 19:31:52 10° WSW 19:36:57 32° NW 19:42:03 10° NNE visible
26 Jun 5.9 00:56:20 10° NNE 00:57:45 11° NNE 00:59:12 10° NE visible
